Zurück zum Katalog

ONEWEB-0584

AktivKommunikationPO
NORAD 54651·PAYLOAD·🇬🇧 United Kingdom

Gestartet Dec 8, 2022 von Cape Canaveral Space Force Station

Loading…

Nächste Überflüge (nächste 24 Stunden)

TLE

AktuellSource: CelesTrak SupGP

Epoche: Sep 14, 2026, 20:51 UTC

1 54651C 22166K   26257.86889307  .00000870  00000+0  21081-2 0  2574
2 54651  87.9269 226.1271 0002135  85.3760 300.7841 13.21823130    13

Verfolge ONEWEB-0584 in Echtzeit mit AllMySat

Download on the App Store